Theta_e
338 340 341 340 341 343 343 343 341 340 340 338 338 339 340 340 340 340 340 339 339 338 338 338 337 336 336 336 335 335 335 335 334 334 335 334 333 333 332 332 332 333 332 332 331 329 329 327 326 325 325 329
335 338 339 340 341 341 342 342 341 341 342 341 340 340 339 339 339 339 339 339 339 338 337 338 337 335 335 335 335 334 335 334 334 334 334 334 334 335 334 334 334 333 333 332 331 329 328 327 324 324 324 329
342 334 337 338 338 340 340 340 340 339 337 338 336 334 334 333 333 332 334 335 335 335 336 336 335 336 336 334 334 334 334 333 334 335 334 334 334 334 334 334 334 332 333 331 330 328 327 323 323 320 326 328
341 335 332 335 336 336 337 337 336 334 332 331 329 328 328 328 331 330 330 325 332 329 331 332 332 334 335 334 334 333 333 333 333 334 335 335 333 332 332 332 331 331 330 330 328 327 324 323 321 326 328 329
341 344 332 332 332 332 332 332 331 329 324 323 323 324 324 327 338 338 336 336 336 328 333 324 326 333 335 334 333 332 333 333 333 334 335 334 332 331 329 325 325 326 328 328 327 325 322 319 327 328 328 328
342 343 338 340 342 342 335 328 326 331 336 332 334 321 329 337 335 334 336 335 332 334 331 329 323 326 329 330 330 332 332 332 333 334 334 332 330 329 326 322 331 328 323 323 324 322 318 331 328 328 327 327
341 340 340 340 340 339 334 335 335 338 336 337 336 334 336 333 335 333 334 333 333 333 321 325 321 324 326 326 326 328 328 328 329 330 329 327 328 325 322 332 330 330 330 329 317 318 329 328 328 327 327 327
339 339 339 338 338 338 338 338 338 338 336 336 335 334 334 333 334 332 332 328 326 325 328 325 320 320 322 321 320 319 325 322 322 322 321 321 321 326 329 330 329 329 328 328 328 329 327 328 328 327 326 325
338 338 338 338 337 337 337 337 337 336 335 334 334 333 333 333 331 331 331 331 330 331 331 330 330 328 329 330 330 318 330 330 330 327 330 329 327 330 330 329 329 329 328 327 328 328 327 327 328 327 326 325
338 338 337 337 337 336 335 336 336 334 333 333 333 332 332 330 329 329 329 329 330 329 329 329 328 329 329 328 328 325 328 328 328 327 328 329 328 328 329 329 329 329 327 327 327 327 328 327 327 326 325 323
338 337 337 336 336 336 335 335 335 334 333 333 332 331 330 328 328 327 327 327 328 327 327 327 327 327 326 327 328 329 327 327 327 326 326 326 328 329 329 329 329 329 329 329 328 328 329 328 327 326 325 324
336 336 336 337 334 335 333 334 333 333 333 333 331 330 330 328 329 326 326 326 326 326 325 325 326 326 325 327 328 328 327 326 325 324 325 327 328 328 329 328 329 329 328 328 329 328 329 329 327 326 325 324
336 336 336 336 336 334 331 333 333 333 333 332 331 330 329 328 329 327 327 326 325 325 324 324 324 324 325 326 328 328 325 325 325 324 323 325 327 328 329 328 328 328 327 327 327 327 328 328 327 326 325 324
335 336 335 335 335 334 333 333 333 334 332 331 331 330 329 328 329 328 327 326 326 324 324 323 323 323 324 325 327 326 325 324 324 323 322 324 327 328 328 328 328 327 327 327 328 328 328 328 326 326 324 323
334 335 335 335 335 335 333 333 333 332 332 331 331 330 330 329 329 329 329 327 326 324 324 323 322 322 324 324 326 326 325 326 324 324 322 324 325 326 327 327 328 327 327 327 327 328 328 328 327 325 325 323
333 334 334 335 334 333 333 333 332 332 331 329 330 331 330 329 329 328 328 328 326 325 324 324 323 323 324 324 325 325 325 325 325 324 324 327 328 328 328 328 328 329 327 326 325 327 327 328 326 325 325 324
333 334 334 334 334 333 332 332 331 331 331 330 329 330 330 330 330 329 329 328 327 326 326 327 326 326 325 324 325 325 326 326 326 326 325 325 327 326 327 327 328 330 328 326 325 326 327 327 326 326 325 324
333 333 333 334 334 332 332 331 330 330 331 330 329 329 329 330 330 329 329 329 328 327 327 328 328 328 328 326 326 325 326 324 325 324 325 324 325 323 325 326 327 326 326 325 325 325 326 326 326 325 325 323
333 333 332 333 333 332 331 331 330 330 330 330 330 329 328 328 329 330 329 329 328 327 327 327 326 327 328 329 328 325 325 325 326 326 325 324 323 324 324 325 327 326 326 325 325 326 326 325 326 325 324 324
333 333 332 332 329 332 331 330 330 330 329 329 329 328 328 328 328 329 330 329 328 327 327 326 326 326 328 329 329 327 327 326 325 325 326 326 325 322 323 324 325 326 326 326 325 326 326 325 325 325 324 323
333 333 332 332 331 331 330 329 329 329 329 328 328 328 327 328 327 328 329 329 329 326 327 326 326 326 328 329 328 327 326 325 326 325 326 325 326 325 322 324 324 325 325 325 325 325 326 326 326 325 324 323
333 332 332 332 331 330 330 329 329 328 328 327 328 328 328 329 329 328 329 330 329 327 327 327 326 326 327 328 327 326 326 326 327 327 326 324 326 325 323 322 323 324 325 325 325 324 325 326 325 324 325 324
332 332 332 332 331 329 329 329 328 328 328 328 329 330 331 331 330 328 329 330 329 328 326 325 325 326 327 327 326 326 326 326 326 326 326 325 324 325 325 324 325 325 325 326 325 324 324 325 325 325 324 323
331 331 329 328 329 328 326 328 326 328 328 329 329 331 331 331 331 330 329 329 329 328 327 325 324 325 326 326 326 325 324 324 324 323 323 323 324 324 324 324 325 326 325 324 324 323 323 324 324 322 320 320
329 328 328 328 328 326 327 326 326 326 327 328 329 331 331 331 330 332 331 328 329 327 325 326 326 326 325 326 326 325 324 325 325 324 324 323 324 323 322 322 324 325 325 322 320 322 322 322 322 321 318 317
329 330 329 328 327 327 327 326 325 325 326 327 328 329 330 330 330 330 331 329 329 328 328 327 326 326 325 325 325 324 325 325 322 324 324 323 322 323 322 321 324 323 322 319 317 316 317 319 321 318 317 317
330 331 330 329 329 328 328 329 328 328 328 328 327 328 329 330 330 329 330 330 328 329 328 328 327 326 326 325 324 323 323 324 323 323 322 322 321 320 322 321 324 323 322 318 320 319 317 313 313 314 314 316
332 332 332 331 331 330 329 328 328 328 329 329 328 327 328 329 329 329 328 329 329 327 328 328 327 327 326 325 325 324 323 323 322 322 322 322 322 322 319 318 320 322 322 322 319 312 313 314 312 309 312 314
330 331 331 330 330 330 329 329 328 327 326 327 327 327 328 328 329 329 328 329 329 327 327 328 328 327 327 327 326 325 324 324 323 323 323 322 322 322 320 319 320 319 320 322 324 319 314 311 308 309 312 314
328 329 328 326 325 323 323 322 323 322 323 325 325 325 328 329 329 329 329 329 329 328 326 327 328 328 327 327 327 326 325 324 325 325 323 323 323 323 323 321 321 319 319 321 323 324 321 319 314 314 314 312
327 328 328 328 326 325 324 322 324 326 327 327 328 329 328 328 329 329 329 329 329 329 327 327 328 328 327 327 327 326 326 324 324 325 325 325 324 323 323 323 319 320 319 318 319 322 323 323 323 321 316 311
Wind_Speed
5 4 3 3 3 4 9 9 9 9 9 9 9 8 7 7 6 7 9 9 8 8 8 9 8 8 8 8 8 8 8 9 9 10 10 11 10 10 9 8 8 7 7 7 7 7 5 4 4 5 8 4
5 4 2 2 3 5 8 7 8 6 5 8 10 9 9 8 8 7 6 6 6 7 7 6 6 7 7 7 8 8 8 8 9 10 10 10 10 10 9 8 7 7 7 6 6 6 5 4 4 4 7 5
6 6 6 5 4 6 6 6 5 7 9 8 9 10 10 10 9 7 7 7 7 6 6 6 5 5 6 7 7 7 7 7 9 9 9 9 9 9 8 8 8 7 6 6 6 6 4 3 3 4 3 5
8 7 8 7 5 5 5 5 7 8 7 8 8 9 9 9 7 6 5 5 6 7 7 6 5 7 7 8 6 6 7 7 7 8 8 8 9 8 8 7 7 7 6 5 6 5 4 2 5 1 5 4
8 7 8 7 7 6 6 8 9 10 8 6 6 7 6 6 4 5 4 4 4 4 5 7 7 6 6 7 6 6 6 6 6 7 8 8 8 8 7 7 7 6 6 5 5 5 3 4 1 4 4 3
7 7 8 9 8 8 7 7 8 7 6 5 5 3 4 3 5 5 4 3 4 4 5 6 7 7 7 7 6 7 6 6 6 7 8 7 6 6 5 2 3 4 5 6 5 3 3 3 4 3 3 4
7 8 8 8 9 7 9 7 7 6 5 5 4 5 4 3 3 4 3 4 3 3 5 5 5 6 6 6 5 4 5 4 5 5 5 5 4 4 3 3 2 2 2 4 5 4 3 3 2 3 4 3
8 8 8 7 8 8 8 8 7 7 7 5 5 5 4 3 2 4 4 4 5 5 4 3 4 5 5 5 5 3 3 3 3 2 2 2 2 4 3 2 2 2 1 1 1 1 2 2 2 2 4 3
9 9 8 8 8 8 8 8 8 7 7 6 6 6 5 3 3 4 4 4 4 4 3 4 3 3 3 2 2 3 2 3 2 3 2 3 3 2 2 2 1 0 0 1 1 1 2 2 1 2 3 3
9 7 9 9 9 9 8 8 8 8 7 6 6 5 5 4 4 4 4 4 4 4 4 4 3 3 3 3 3 3 3 3 3 3 3 3 3 2 2 1 0 0 1 1 1 2 1 1 1 2 3 2
9 8 9 9 8 9 9 8 7 8 7 7 7 6 6 5 5 5 5 5 5 4 3 4 3 3 3 4 4 3 4 4 4 4 3 3 3 3 3 2 2 2 2 2 2 2 1 1 0 1 2 2
10 9 9 7 7 9 8 8 8 9 8 7 7 7 7 6 5 6 6 6 6 5 4 4 4 4 4 4 4 3 4 4 4 4 4 4 4 4 3 3 2 2 2 1 1 1 1 2 1 1 1 2
10 10 10 9 8 10 9 9 9 9 8 8 8 8 7 7 6 7 5 6 6 6 5 5 4 4 5 5 4 4 5 5 5 5 5 5 5 4 4 3 3 2 2 3 2 3 1 3 2 1 1 1
10 10 10 11 9 10 7 9 9 9 8 8 7 7 7 8 7 6 5 5 5 5 5 5 5 5 5 5 5 4 5 5 5 5 5 5 4 4 4 4 3 3 3 3 2 2 2 2 2 2 3 2
12 11 11 11 11 8 8 9 9 8 8 8 8 8 8 8 8 5 5 5 5 4 4 4 4 5 5 5 5 4 5 4 5 5 4 5 5 4 4 4 3 4 3 3 4 2 2 2 3 3 3 2
11 11 11 10 10 10 10 9 9 9 8 8 8 9 8 9 9 7 6 6 5 5 5 5 5 5 5 5 4 4 5 4 4 4 4 3 3 3 3 4 4 4 4 4 3 2 2 3 3 4 3 3
12 11 11 11 11 9 8 9 9 9 9 9 8 9 10 10 10 8 6 6 7 6 5 5 5 5 5 5 4 4 5 5 4 4 4 3 3 4 4 4 5 4 5 5 3 3 2 3 4 3 3 3
10 13 11 10 9 8 9 9 9 9 9 9 9 9 10 11 11 10 9 7 6 6 6 6 6 6 6 5 5 4 4 5 5 5 4 4 4 5 5 6 5 5 5 4 4 4 3 4 4 4 4 4
15 13 13 11 9 9 10 9 9 9 9 10 9 9 9 11 11 12 11 10 8 7 7 7 7 7 6 5 5 5 5 5 4 4 5 5 5 5 6 6 5 5 5 5 5 5 4 5 4 5 5 4
15 14 14 13 11 9 10 9 9 10 9 10 9 9 9 11 11 12 12 11 10 10 10 10 9 7 7 6 5 5 4 4 4 5 5 6 5 6 6 6 6 6 6 5 6 5 5 5 5 5 5 5
15 14 14 14 13 12 10 10 10 10 9 9 10 10 10 10 11 12 12 12 12 11 11 10 10 8 8 6 5 5 5 5 6 6 5 6 6 6 6 6 7 6 6 6 7 6 6 6 5 5 6 6
13 14 13 13 13 11 11 11 9 9 9 10 10 11 11 12 11 11 13 13 12 11 11 10 10 8 9 6 5 5 6 7 7 7 6 7 6 6 7 7 7 7 7 6 6 6 6 6 5 6 6 4
14 14 13 11 11 12 12 10 10 9 10 10 11 11 12 12 11 11 12 13 13 12 11 11 11 10 10 7 6 7 9 9 9 9 9 8 7 6 7 7 7 7 6 6 5 6 8 7 7 6 5 4
12 12 11 12 11 12 10 11 9 10 11 10 11 12 13 13 12 12 11 12 13 12 12 11 11 11 11 10 8 10 11 10 10 11 11 11 9 9 5 4 5 7 7 7 8 8 8 7 5 6 4 5
13 13 13 12 14 14 11 10 10 10 11 12 12 13 13 12 13 14 13 12 13 13 12 12 11 10 9 9 9 10 11 10 10 10 9 8 8 9 10 7 6 6 6 8 8 8 8 8 7 6 5 6
15 15 14 14 14 13 12 12 12 13 12 13 13 14 14 14 14 14 14 13 14 13 13 12 11 9 9 10 9 10 10 11 10 11 11 9 9 9 9 8 8 8 8 9 9 8 7 7 7 5 6 7
14 14 14 14 12 13 12 13 12 13 13 12 13 14 15 14 14 14 14 15 15 13 13 14 11 10 9 10 9 9 11 11 12 11 13 12 10 8 8 7 7 10 11 9 7 8 7 8 8 5 5 8
13 12 12 14 12 12 12 11 11 13 12 13 14 15 15 15 14 14 14 15 15 11 11 12 11 10 9 10 10 10 9 10 11 11 11 11 12 10 8 9 8 10 12 10 8 7 7 7 6 8 6 8
13 11 11 12 11 11 11 11 11 11 13 14 14 13 14 15 15 15 15 15 16 13 13 12 11 11 10 10 11 11 10 10 11 11 10 11 11 12 11 9 8 10 11 12 11 9 5 4 4 8 6 1
14 12 13 15 12 13 14 14 14 16 17 15 16 17 15 15 16 17 17 15 15 15 12 12 12 12 11 11 10 11 10 10 9 11 12 12 11 12 13 10 9 9 10 11 13 13 12 8 6 4 1 3
13 13 12 16 15 15 16 15 13 14 13 12 12 11 14 14 15 16 16 16 16 16 14 13 12 13 12 11 11 10 11 11 12 11 12 11 11 11 11 11 11 11 9 8 10 13 15 13 8 7 6 8
Wind_Direction
171 190 200 247 256 154 140 150 157 163 160 159 151 143 140 125 116 132 142 146 141 139 136 134 131 128 128 126 125 123 119 116 115 113 108 105 101 97 93 92 87 87 87 95 102 95 83 49 34 8 324 53
172 162 177 124 147 137 141 152 159 169 139 122 111 97 97 97 103 102 104 101 123 134 132 122 127 132 130 127 125 120 109 110 111 106 104 101 95 91 90 88 91 89 94 98 99 102 82 56 28 12 301 47
166 153 134 132 125 119 134 147 147 109 114 110 102 107 107 104 99 83 77 73 61 68 96 94 109 118 119 121 122 123 120 117 108 103 101 97 90 90 90 86 84 85 85 100 112 104 85 65 24 286 285 42
191 155 146 145 140 134 127 117 109 106 101 109 112 114 119 115 110 103 88 78 88 64 79 73 111 94 115 123 126 128 121 113 104 100 96 91 87 87 84 79 73 75 89 106 112 110 93 74 256 341 44 27
203 157 155 155 156 146 124 120 120 120 112 115 112 123 123 134 158 152 138 159 114 93 74 72 74 84 91 105 108 122 115 95 99 96 92 87 84 83 80 82 76 57 69 91 102 104 102 228 271 44 34 29
197 182 187 193 182 180 147 131 134 148 154 155 151 133 163 187 198 204 191 156 150 140 126 91 66 78 81 81 80 84 78 72 88 90 79 78 79 81 89 163 147 117 89 79 97 102 190 243 45 42 31 39
208 200 200 203 199 190 174 158 175 173 167 181 168 186 203 191 186 210 200 191 152 137 65 88 67 95 104 93 83 91 84 65 56 65 65 69 80 91 164 184 127 116 137 120 133 177 217 38 38 40 33 46
212 211 208 207 205 201 196 186 195 195 195 198 194 196 211 205 156 194 217 104 128 130 156 123 88 68 95 107 89 79 133 124 83 84 97 94 171 184 186 127 147 118 95 50 55 60 37 45 75 29 30 40
213 213 213 212 210 210 206 199 198 200 200 204 205 206 214 220 203 208 216 202 185 212 191 190 196 191 209 203 176 192 190 187 165 214 169 179 202 177 163 172 124 171 112 42 41 35 26 42 58 44 31 27
211 209 215 216 214 213 212 208 203 200 200 204 204 204 212 193 204 215 216 218 219 219 219 214 215 222 221 214 210 209 210 187 196 194 194 198 202 190 193 201 172 284 347 27 334 326 22 5 43 33 34 42
210 207 219 219 215 215 214 209 207 209 207 205 200 202 198 201 202 207 212 213 214 218 223 225 223 225 226 226 222 207 213 193 192 205 198 203 205 203 202 207 225 256 263 298 306 316 263 243 309 11 46 41
213 208 216 210 203 215 208 203 210 213 214 207 206 207 213 214 200 212 216 214 215 218 217 228 228 230 229 228 231 215 220 202 199 201 201 202 205 208 209 214 234 245 252 261 297 312 242 189 212 307 32 35
214 213 214 214 210 215 206 211 214 215 215 215 215 212 211 213 217 221 209 208 215 214 218 219 220 223 230 229 229 215 214 211 205 206 203 203 207 207 214 220 234 253 271 278 287 292 277 204 209 188 159 114
216 215 215 218 214 219 199 215 218 215 216 220 217 214 207 209 223 219 206 202 201 199 207 207 216 224 228 225 223 213 214 206 214 212 206 209 208 211 217 235 246 261 265 275 291 287 252 218 231 183 176 168
220 219 219 217 219 215 212 217 217 217 218 217 220 225 210 214 220 220 211 207 194 195 200 196 201 213 215 223 220 212 218 200 216 220 221 212 215 215 223 232 240 254 269 272 286 268 227 194 205 194 195 192
222 221 220 219 220 217 218 216 215 216 217 214 218 225 219 219 226 221 213 202 194 203 202 205 205 212 210 221 218 213 219 210 214 225 222 212 237 246 237 240 245 248 261 267 277 289 227 195 205 201 190 191
223 222 221 216 214 210 207 213 216 217 216 216 216 218 218 221 225 221 216 206 205 200 216 213 211 219 216 224 220 215 216 215 212 218 218 208 202 223 230 235 245 241 252 259 264 268 239 229 208 202 196 186
221 224 221 219 211 207 203 209 214 217 220 218 217 216 219 222 227 229 228 220 203 208 224 226 227 229 224 221 219 219 209 215 217 222 217 218 208 216 225 227 235 241 240 245 259 259 223 234 224 195 209 195
221 223 223 219 212 208 207 209 213 216 217 221 219 216 218 221 226 228 230 229 221 214 226 232 230 229 230 221 211 220 218 225 220 226 225 222 226 221 222 231 234 237 246 249 249 250 240 245 215 190 198 178
218 221 223 224 216 215 206 209 214 217 217 219 220 218 222 220 223 226 226 229 228 232 230 233 234 231 228 212 213 220 216 213 230 226 231 232 232 235 228 228 229 229 241 249 255 254 248 247 229 228 217 193
218 219 220 222 220 213 209 211 215 219 219 218 219 221 222 221 220 221 224 225 225 230 231 231 235 234 228 209 213 214 215 215 229 230 228 235 224 238 247 229 234 234 237 245 252 251 249 245 226 228 219 233
215 219 218 218 220 211 211 210 212 216 217 220 220 222 225 222 218 219 221 223 223 227 231 233 233 234 231 207 201 217 220 227 228 232 233 237 225 224 234 242 236 234 237 243 249 250 245 235 218 225 220 217
217 219 221 219 215 213 211 211 211 213 219 222 224 225 227 225 221 218 220 221 221 223 228 232 234 233 230 215 209 221 228 232 232 237 238 239 238 222 230 244 239 241 245 233 231 242 244 236 226 213 197 199
212 216 216 216 213 214 207 208 208 213 220 222 226 229 229 227 226 220 217 218 218 221 227 231 231 230 231 228 218 224 230 231 231 233 236 239 238 232 215 225 242 237 237 243 249 249 249 240 228 221 204 204
206 208 214 217 216 212 203 199 202 209 216 223 227 228 229 231 229 225 218 217 216 219 222 231 233 223 221 220 220 223 230 231 234 233 232 231 227 227 230 216 213 219 235 244 247 245 250 248 226 218 208 216
208 209 209 210 215 215 213 201 201 212 214 218 222 226 228 227 228 228 226 220 219 217 223 227 225 214 215 213 222 229 233 234 231 229 230 234 236 228 228 232 206 217 215 232 241 250 247 236 228 206 219 223
207 207 211 212 214 214 222 222 219 220 219 217 222 223 225 228 228 226 225 221 219 222 223 225 214 212 210 212 216 223 226 228 228 229 231 228 228 220 220 238 223 215 208 232 222 243 271 261 256 193 217 222
212 207 204 213 215 217 221 225 223 227 228 228 226 227 226 227 226 224 225 224 220 207 209 211 213 211 209 208 205 217 221 219 219 221 222 222 223 225 220 218 221 215 218 225 223 228 219 254 261 279 226 209
206 207 203 214 217 224 225 231 229 223 228 226 225 226 223 223 220 221 223 223 224 210 208 209 210 212 210 207 205 210 222 224 218 212 215 215 216 212 220 221 215 209 218 224 223 233 220 213 230 230 261 333
199 203 204 209 208 213 217 221 218 219 218 214 215 217 220 218 216 218 222 221 224 220 204 206 207 209 212 210 208 207 216 223 219 212 212 212 211 213 215 228 222 217 212 224 224 230 241 241 273 291 130 170
194 202 204 203 204 207 208 212 217 217 218 215 215 214 217 216 216 219 222 223 224 223 212 204 206 208 211 213 211 209 212 218 220 217 215 211 211 215 213 215 233 227 214 209 230 229 237 245 251 256 247 241